Regional Weather Roundup
Issued by NWS

Home | Current Version | Previous Version | Graphics & Text | Print | Product List | Glossary On
Versions: 1 2 3 4 5 6 7 8 9 10 11 12 13 14 15 16 17 18 19 20 21 22 23 24 25 26 27 28 29 30 31 32 33 34 35 36 37 38 39 40 41 42 43 44 45 46 47 48 49 50
000
ASUS43 KLOT 031722
RWRIL

ILLINOIS REGIONAL WEATHER ROUNDUP
NATIONAL WEATHER SERVICE CHICAGO/ROMEOVILLE IL
1200 PM CDT MON AUG 03 2015

NOTE: "FAIR" INDICATES FEW OR NO CLOUDS BELOW 12,000 FEET WITH NO
SIGNIFICANT WEATHER AND/OR OBSTRUCTIONS TO VISIBILITY.

* THESE STATIONS ARE NOT UNDER NWS QUALITY CONTROL. THEY ALSO MAY NOT
  REPORT WEATHER SUCH AS PRECIPITATION OR FOG.

ILZ001-002-007-009-015-016-024-031800-
NORTHWEST ILLINOIS

CITY           SKY/WX    TMP DP  RH WIND       PRES   REMARKS
MOLINE         SUNNY     80  53  39 N7        29.93R HX  80
STERLING*      SUNNY     81  52  36 NW7         N/A  HX  80
SAVANNA*       SUNNY     79  48  33 NW12      29.92S
$$

ILZ003-004-008-010-011-017-018-031800-
NORTH CENTRAL ILLINOIS

CITY           SKY/WX    TMP DP  RH WIND       PRES   REMARKS
ROCKFORD       MOSUNNY   79  47  32 NW7       29.91S
FREEPORT*      SUNNY     76  49  37 NW9       29.93S
ROCHELLE*      SUNNY     76  50  39 N6        29.91S
DE KALB*       SUNNY     77  51  40 NW12G17   29.90S
PERU*          SUNNY     78  53  42 NW8       29.90S
$$

ILZ005-006-012>014-019>023-031800-
NORTHEAST ILLINOIS

CITY           SKY/WX    TMP DP  RH WIND       PRES   REMARKS
CHICAGO-OHARE  MOSUNNY   79  54  41 NW12      29.86S
CHICAGO-MIDWAY MOSUNNY   81  56  42 NW9       29.86R HX  81
AURORA         SUNNY     78  52  40 NW13      29.89R
LANSING*       SUNNY     80  56  43 CALM      29.86S HX  80
JOLIET*        SUNNY     80  59  48 NW5       29.88R HX  81
WAUKEGAN       SUNNY     76  49  38 W13G18    29.86S
DUPAGE AIRPORT SUNNY     77  56  48 W12       29.87S
KANKAKEE*      PTSUNNY   82  65  56 NW7       29.87S HX  84
WHEELING       NOT AVBL
MORRIS*        SUNNY     79  62  55 NW5       29.88R HX  80
ROMEOVILLE*    SUNNY     78  57  48 NW12G18   29.88R
NORTHERLY ISL    N/A     76  61  59 NE6         N/A
$$

LMZ740>746-031800-
SOUTHERN LAKE MICHIGAN

STATION/POSITION SKY/WX   TEMP    WIND        PRES    VSBY  WAVE
                          AIR SEA DIR/SP/G                  HT/PER
                          (F)     (DEG/KT/KT) (MB)    (MI)  (FT/S)
HARRISON CRIB              72     360/ 11/ 13   N/A
BURNHAM HARBOR             78     330/  2/  9   N/A
CALUMET HARBOR             75     360/  6/  9   N/A
BURNS HARBOR               71     340/  7/ 10 1011.9R
MICHIGAN CITY              72     310/  9/ 11   N/A
MICHIGAN CITY 6N           71 74  330/ 10/ 12   N/A           3/ 4
ST. JOSEPH                 70 73  340/ 12/ 12   N/A           3/ 4
$$

ILZ025>027-034>036-040-047-049-050-058-095>099-031800-
WEST-CENTRAL ILLINOIS

CITY           SKY/WX    TMP DP  RH WIND       PRES   REMARKS
QUINCY         CLOUDY    79  64  60 W8        29.94R HX  81
GALESBURG*     SUNNY     78  59  51 NW9       29.93S
MACOMB*        SUNNY     78  62  56 NE9       29.95S HX  80
JACKSONVILLE*  SUNNY     83  69  62 W8        29.91S HX  86
PITTSFIELD*    SUNNY     83  66  56 W6        29.93F HX  85
$$

ILZ028>032-037-038-041>044-048-051>054-059>061-031800-
CENTRAL ILLINOIS

CITY           SKY/WX    TMP DP  RH WIND       PRES   REMARKS
PONTIAC        SUNNY     80  68  65 N7        29.90R HX  83
BLOOMINGTON    PTSUNNY   82  69  64 NW12      29.91R HX  85
DECATUR        SUNNY     85  68  56 W10       29.89S HX  88
PEORIA         SUNNY     82  63  52 NW8       29.91R HX  83
LACON*         SUNNY     78  61  54 NW8       29.90R HX  80
LINCOLN*       MOSUNNY   84  67  56 W7        29.89R HX  87
SPRINGFIELD    MOSUNNY   83  70  64 W9        29.90S HX  87
TAYLORVILLE    SUNNY     81  70  69 W7        29.90F HX  84
$$

ILZ033-039-045-046-055>057-062-063-031800-
EAST-CENTRAL ILLINOIS

CITY           SKY/WX    TMP DP  RH WIND       PRES   REMARKS
CHAMPAIGN      MOSUNNY   84  71  65 W12       29.88R HX  89
DANVILLE*      PTSUNNY   84  69  61 NW8       29.83S HX  88
RANTOUL*       SUNNY     85  69  57 W9        29.87S HX  89
MATTOON        SUNNY     85  67  54 W13       29.88R HX  87
PARIS*         MOSUNNY   84  72  67 W12       29.87S HX  89
$$

ILZ079-100>102-031800-
SOUTHWEST ILLINOIS

CITY           SKY/WX    TMP DP  RH WIND       PRES   REMARKS
ALTON          MOSUNNY   84  66  54 NW7       29.91S HX  86
BELLEVILLE     SUNNY     89  68  50 NW5       29.89S HX  92
CAHOKIA*       SUNNY     91  64  40 W3        29.90S HX  92
SPARTA*        SUNNY     87  71  59 W7        29.93R HX  93
$$

ILZ064>066-069>071-074>076-080>082-084>086-088>090-092>094-031800-
SOUTH-CENTRAL ILLINOIS

CITY           SKY/WX    TMP DP  RH WIND       PRES   REMARKS
CARBONDALE     SUNNY     87  72  60 MISG      29.91S HX  93
CAIRO*         SUNNY     88  74  62 SW5       29.92S HX  97
EFFINGHAM*     SUNNY     87  63  44 W10G16    29.91S HX  88
MT. VERNON     SUNNY     90  64  43 W8        29.90S HX  91
CENTRALIA*     SUNNY     88  60  39 NW9       29.91R HX  88
SALEM*         SUNNY     90  63  40 W9        29.90S HX  91
METROPOLIS*    SUNNY     89  74  61 SW6       29.92S HX  97
$$

ILZ067-068-072-073-078-083-087-091-031800-
SOUTHEAST ILLINOIS

CITY           SKY/WX    TMP DP  RH WIND       PRES   REMARKS
LAWRENCEVILLE  SUNNY     88  68  51 W9        29.88R HX  91
FLORA*         SUNNY     88  62  41 W13G18    29.89S HX  88
FAIRFIELD*     SUNNY     88  66  48 W6        29.88S HX  90
HARRISBURG*    SUNNY     90  68  48 W9        29.91S HX  93
ROBINSON*      SUNNY     86  68  53 W10       29.87F HX  89
CARMI*         SUNNY     88  62  41 W12       29.89S HX  88
$$

ABBREVIATIONS USED IN REMARKS
   TC - TEMPERATURE IN CELSIUS
  WCI - WIND CHILL INDEX
   HX - HEAT INDEX
  VSB - VISIBILITY
$$



USA.gov is the U.S. government's official web portal to all federal, state and local government web resources and services.